Location: Menands
(42.6920°N, 73.7246°W)
Time: 08:08:52
(UTC+00:00)

SL-16 R/B - Pass Details

Date: 18 February 2026
Orbit: 841 x 847 km, 71.0° (Epoch: 7 March)

Event Time Altitude Azimuth Distance (km) Brightness Sun altitude
Rises 22:48:25 0° 342° (NNW) 3,408 5.4 -4.0°
Reaches altitude 10° 22:51:06 10° 351° (N) 2,470 4.6 -4.5°
Maximum altitude 22:56:14 34° 56° (NE) 1,353 2.8 -5.4°
Drops below altitude 10° 23:01:21 10° 121° (ESE) 2,461 4.2 -6.3°
Sets 23:04:00 0° 130° (SE) 3,393 5.0 -6.8°
